Theta_e
342 342 346 345 345 345 345 343 345 342 344 343 342 339 344 344 343 339 337 336 336 337 335 334 336 336 334 333 334 335 338 342 344 343 343 344 346 343 341 342 342 341 342 337 337 336 335 335 335 334 332 332 332 337 336 334 332 332 331 332 331 330 329 329 329 328 328 328 328 327 327 327 326 326 325 325 325 325 325 326 326 327 326 325 325
340 344 343 344 345 345 344 343 343 343 344 343 343 342 344 344 340 338 335 335 336 337 337 336 333 334 333 333 332 334 338 340 342 339 341 344 346 343 342 341 342 341 340 341 337 336 335 336 335 335 333 331 331 338 337 335 333 333 332 331 331 330 330 329 328 328 328 327 327 327 327 326 326 326 325 325 325 325 325 325 324 324 325 324 324
341 342 342 341 344 343 341 341 341 344 344 342 344 343 344 344 342 339 337 337 338 337 334 336 335 332 333 332 334 336 336 340 340 340 339 341 346 346 343 341 341 340 341 339 340 338 336 335 335 335 335 333 332 331 337 336 335 335 333 332 331 330 330 329 329 328 328 328 327 327 326 326 326 326 325 325 324 324 324 324 324 324 324 323 324
341 340 342 342 341 340 342 341 340 342 343 343 343 344 343 341 344 344 342 339 337 336 337 336 335 333 333 331 333 334 334 336 337 338 341 342 345 344 344 341 341 340 341 339 339 338 339 335 334 335 335 335 334 332 333 336 337 336 335 333 332 331 330 330 329 329 328 328 327 327 326 326 326 325 325 324 324 324 323 324 324 323 323 323 323
340 342 341 341 342 342 342 341 341 341 341 342 342 343 343 342 344 344 342 338 336 337 335 336 335 334 333 332 332 330 332 333 336 338 339 342 342 341 342 343 340 339 338 340 338 339 337 335 334 334 335 335 333 333 331 331 336 337 336 334 333 331 331 330 330 329 328 328 328 327 326 326 326 326 325 324 324 324 323 323 323 323 323 323 322
342 340 341 341 341 340 340 340 341 341 341 342 340 342 339 339 339 342 339 339 337 337 335 335 335 335 334 334 334 336 333 331 333 335 340 341 341 342 342 342 344 342 340 341 340 338 336 337 335 334 333 333 333 332 332 331 331 329 335 336 333 332 331 330 330 329 328 328 328 327 327 327 326 326 325 324 324 323 323 323 323 323 322 322 322
341 341 340 340 339 339 339 340 341 341 338 337 339 338 335 335 338 335 336 339 338 338 338 338 336 335 337 338 334 334 336 333 332 333 333 339 345 343 342 341 344 341 341 340 341 339 338 340 336 335 335 334 332 331 331 332 331 330 329 337 335 333 332 331 331 330 328 329 328 327 327 327 326 326 325 324 324 323 323 323 322 322 322 322 321
341 340 338 337 337 337 340 341 340 341 339 338 338 335 338 338 337 337 333 334 335 336 337 337 337 336 337 339 338 337 336 336 335 332 333 336 336 340 342 343 345 342 342 341 341 339 336 339 339 340 335 335 333 332 332 332 332 330 329 336 336 334 334 333 332 331 330 329 329 328 328 328 327 327 326 325 324 324 323 323 322 322 322 322 321
340 341 337 337 336 336 337 340 340 340 338 337 334 338 338 337 336 336 337 333 334 334 336 337 336 337 337 336 337 338 337 337 338 336 335 337 339 340 341 341 343 340 343 341 340 340 338 337 339 338 339 340 335 334 333 334 333 331 331 330 337 336 335 334 333 332 331 330 329 329 329 328 327 327 326 326 325 325 323 323 323 322 322 322 322
340 340 338 338 338 338 336 338 339 339 338 339 338 339 338 338 335 338 339 339 337 335 335 336 335 335 336 335 337 337 337 338 339 338 335 335 337 339 340 342 344 341 341 338 336 336 338 337 335 336 337 337 338 336 335 335 334 332 331 330 334 337 335 336 335 333 332 332 330 329 329 328 328 327 327 326 326 325 325 324 323 323 322 322 322
340 340 339 337 335 336 335 337 339 338 339 337 337 338 338 337 335 337 340 339 338 338 338 337 336 334 334 335 335 336 338 338 337 336 339 339 338 337 337 341 341 342 340 339 342 338 338 337 336 339 338 334 337 338 337 336 335 335 334 332 331 333 334 333 337 335 335 333 332 330 330 329 328 327 327 327 326 326 325 324 324 324 323 322 322
340 340 339 337 335 334 337 338 338 337 335 334 336 337 336 334 334 336 338 337 338 338 337 337 336 336 334 336 335 335 336 334 335 336 338 341 341 340 340 341 343 343 342 340 340 338 338 336 337 336 336 333 334 337 338 338 338 336 336 336 335 333 333 334 333 335 336 334 334 332 331 330 329 328 327 327 327 326 325 325 324 324 323 323 322
338 340 341 337 339 339 339 338 337 337 337 337 338 338 339 338 335 337 337 335 335 336 335 337 333 332 334 333 335 336 337 335 334 335 335 335 338 338 339 340 342 342 335 336 335 337 337 337 337 336 338 337 335 333 334 334 336 337 336 336 336 337 336 334 334 333 334 335 335 335 332 331 330 329 328 328 328 327 326 326 325 324 323 323 323
336 336 336 335 335 336 336 335 335 336 335 335 335 335 336 337 336 335 338 335 333 336 335 336 330 328 327 328 331 333 335 335 332 333 334 334 334 335 339 339 338 340 338 337 337 336 336 338 338 336 337 337 339 339 338 337 337 335 337 336 336 336 336 336 337 335 334 333 334 336 334 332 331 330 330 329 328 328 327 326 325 324 324 323 324
335 335 334 333 333 332 332 332 333 332 332 332 333 333 333 333 335 334 334 337 335 337 337 337 329 330 330 327 324 323 328 330 334 332 333 334 334 334 336 336 335 337 335 336 337 336 336 338 335 337 338 338 339 339 339 335 336 333 335 335 336 336 336 337 337 335 335 334 333 333 335 334 333 331 331 331 330 329 328 327 326 325 325 324 323
332 330 330 332 332 332 332 331 332 333 331 330 331 330 333 332 332 333 334 332 332 333 337 337 334 329 323 323 323 324 319 320 324 330 333 334 333 333 333 331 330 334 337 335 335 337 337 338 339 339 337 336 336 336 338 340 335 331 329 334 334 334 336 337 337 336 334 334 334 335 335 336 335 334 333 332 331 330 329 328 327 326 326 325 324
332 332 330 331 331 331 331 331 331 332 332 330 330 330 329 330 332 332 331 329 330 333 335 337 336 336 328 322 322 321 320 319 321 326 333 329 330 331 333 331 331 333 334 334 336 338 337 337 339 339 338 338 338 337 339 341 339 338 336 333 333 332 334 335 336 336 336 335 335 335 335 335 335 335 334 333 332 331 330 330 329 328 327 326 325
331 331 330 331 331 331 332 330 332 330 329 329 330 330 330 329 330 331 330 332 331 332 331 334 334 336 335 332 327 322 321 325 323 316 330 329 330 330 331 333 334 331 334 334 333 334 335 336 336 335 337 339 340 338 336 338 339 339 337 336 328 327 325 328 333 335 336 336 335 335 336 336 335 335 336 335 333 333 332 331 330 330 329 328 327
331 330 330 329 330 330 331 330 329 329 329 329 328 329 328 330 331 330 330 331 331 328 329 329 332 333 335 334 333 333 332 326 321 322 316 325 327 328 330 332 331 331 331 330 333 334 335 334 334 334 335 336 336 337 336 336 333 333 330 329 327 325 323 321 323 329 332 333 334 335 335 336 336 335 335 335 335 334 333 332 332 331 331 330 330
328 328 329 328 328 327 328 328 326 327 325 327 327 327 328 330 333 332 332 333 333 331 331 331 328 329 332 331 331 332 331 333 330 324 322 319 321 326 329 330 330 330 329 329 331 333 333 334 333 334 334 335 337 337 334 335 338 336 333 325 325 325 322 321 318 316 319 326 331 333 333 334 335 335 335 335 334 334 334 334 334 333 332 331 331
328 328 327 325 325 326 327 326 325 324 323 323 325 324 328 329 328 328 329 329 330 330 331 330 331 329 330 327 328 330 329 330 331 330 323 318 318 320 320 325 328 328 327 329 330 331 330 329 330 332 332 332 334 334 334 335 336 334 325 322 324 323 322 320 314 314 312 321 328 332 334 334 335 335 335 335 335 333 333 333 332 333 333 333 332
328 327 325 323 325 326 325 327 326 323 323 324 326 328 328 328 329 329 329 328 328 329 328 329 331 332 330 328 327 328 328 327 329 328 329 325 319 318 322 323 320 323 326 324 325 325 326 327 327 327 331 332 332 332 332 328 325 326 320 318 320 321 318 314 310 309 312 322 330 332 335 334 334 334 335 335 336 335 334 332 333 334 335 334 333
326 326 325 324 326 326 326 324 326 326 324 323 326 325 326 327 327 327 327 327 327 328 328 329 328 327 327 326 324 325 324 322 325 328 326 324 322 322 323 321 320 320 321 322 322 321 321 323 323 324 326 327 328 326 325 321 318 316 314 314 315 316 315 314 311 311 314 320 326 331 334 335 335 335 335 335 335 333 334 334 333 333 333 333 334
324 323 324 325 324 325 326 324 323 325 324 325 325 325 326 326 325 325 325 327 327 326 326 326 325 325 325 324 323 324 324 323 323 326 326 324 324 321 318 319 319 318 318 321 320 320 319 319 319 321 323 323 323 324 321 319 316 315 315 312 312 310 312 313 312 311 309 315 317 322 327 330 330 331 331 332 333 333 333 332 330 327 327 329 330
322 323 325 325 324 325 324 322 321 323 324 324 324 325 324 323 323 323 324 324 324 325 323 325 325 322 321 322 320 319 320 322 323 323 324 326 325 318 318 320 316 316 317 318 316 317 318 318 319 320 320 322 322 320 320 319 318 317 316 313 310 310 309 309 309 308 307 306 310 313 316 321 324 325 325 324 322 321 321 317 313 311 313 318 322
323 323 324 325 324 325 325 324 323 322 322 323 323 323 324 320 322 323 324 324 324 324 323 324 324 324 323 320 320 318 319 321 322 322 322 321 320 319 318 318 318 315 316 316 316 314 314 317 318 319 320 321 321 320 321 319 320 316 316 316 311 308 307 307 307 307 305 305 305 306 308 312 314 314 316 317 315 314 313 312 310 309 310 311 314
323 325 325 325 326 326 325 325 325 324 323 323 322 323 323 319 320 322 322 322 321 321 321 323 321 321 322 320 319 318 318 316 318 319 319 322 321 321 319 315 315 315 314 314 313 312 312 314 315 316 318 320 319 320 318 319 317 315 315 319 314 307 306 306 306 306 306 305 305 304 305 307 308 310 311 310 311 313 314 312 311 309 309 311 312
325 325 326 325 325 325 325 325 325 325 324 322 321 321 323 320 319 321 320 319 320 319 319 320 320 321 321 320 318 316 318 317 317 317 318 321 322 322 319 317 312 309 312 311 312 311 313 310 311 313 315 317 317 317 316 315 317 315 320 320 317 312 305 305 304 304 304 304 304 303 304 305 306 307 309 311 311 311 311 311 310 309 310 310 311
324 326 326 326 326 325 324 325 326 326 325 323 322 322 322 321 320 320 320 320 319 317 318 318 320 320 319 320 318 317 318 320 318 318 319 320 321 321 319 318 316 311 310 309 310 310 311 311 307 308 312 314 316 316 315 314 313 316 318 318 316 313 306 305 304 304 303 301 302 302 302 303 304 306 308 309 309 309 309 309 309 309 310 309 309
325 325 326 325 325 325 325 325 326 326 326 324 323 324 323 320 321 319 320 321 320 320 319 318 319 319 320 320 319 316 319 318 318 320 318 318 317 319 318 318 318 313 312 310 310 312 309 311 310 307 309 311 313 314 313 312 310 314 314 314 313 312 304 304 303 304 303 302 301 302 303 303 303 304 306 307 307 307 307 308 308 307 309 308 307
324 325 324 324 325 325 325 325 325 325 326 325 325 325 324 323 322 321 322 322 319 319 321 321 320 320 319 318 318 317 320 320 320 319 320 319 316 314 315 317 318 319 316 313 310 312 314 309 308 309 308 309 310 312 311 310 310 313 315 315 312 308 307 305 303 302 303 302 302 302 305 305 304 303 303 304 305 305 305 306 307 306 307 306 306
324 324 324 324 324 325 325 325 325 325 325 325 325 324 325 324 324 322 323 322 320 319 319 320 317 319 319 318 317 317 318 318 318 318 316 318 318 315 316 317 317 319 316 314 311 310 312 310 309 308 309 311 310 310 311 309 308 309 314 312 312 308 313 310 303 302 302 301 301 302 303 303 303 303 302 300 301 303 303 303 304 304 304 304 304
326 325 324 324 324 325 325 324 324 325 325 325 326 326 325 324 323 323 323 323 321 321 320 319 318 319 317 316 315 316 319 318 317 317 316 315 316 316 316 315 315 317 316 315 310 308 310 313 311 309 311 312 308 310 310 312 314 312 310 313 314 314 313 315 311 302 301 301 300 300 300 301 301 301 298 297 300 300 300 301 302 301 302 301 300
326 325 324 325 324 325 324 325 325 325 325 325 325 326 324 324 325 324 324 322 322 322 322 320 320 318 319 317 315 316 316 315 316 314 314 314 313 312 312 313 313 314 316 313 310 308 307 311 310 312 311 313 309 311 312 312 312 312 310 312 311 311 311 313 313 309 301 302 301 300 301 300 299 299 299 299 299 299 300 300 300 300 300 299 299
326 324 324 325 325 325 325 325 325 325 325 326 327 326 325 325 325 325 325 324 323 322 322 322 321 320 320 319 318 318 318 317 316 316 315 315 314 311 312 312 312 313 313 313 312 310 310 311 314 312 312 313 313 310 311 312 312 312 311 312 311 311 311 312 312 311 301 301 299 301 300 300 300 299 299 300 299 299 299 299 300 299 299 299 299
326 326 326 325 325 325 325 325 325 325 325 326 326 326 325 325 324 324 325 325 325 324 323 322 321 322 322 320 320 320 320 318 317 317 316 316 315 313 313 314 315 315 318 318 318 316 314 312 313 311 313 312 311 311 311 312 312 311 312 312 312 311 312 312 312 311 304 300 299 301 301 301 300 300 300 299 300 300 300 300 299 299 299 299 299
326 327 327 327 327 326 326 324 325 325 326 326 326 326 328 327 326 326 325 324 325 325 326 325 323 323 322 322 322 322 320 319 319 317 317 316 314 314 313 314 316 318 318 318 318 318 316 314 313 313 314 313 312 313 312 311 311 311 311 311 311 311 313 314 313 310 304 299 302 302 302 302 302 301 300 300 300 300 299 299 299 299 299 300 300
328 328 327 327 327 327 327 326 325 325 325 325 325 325 326 327 327 327 327 326 325 325 325 324 325 326 325 324 323 323 322 321 321 319 318 316 314 314 313 312 314 316 317 318 318 318 317 315 314 312 314 312 312 313 313 313 312 311 311 312 312 312 312 313 313 311 312 310 312 311 305 303 301 299 300 301 300 299 299 300 300 300 299 299 299
328 328 328 327 328 327 326 326 326 326 326 326 326 327 326 326 327 326 327 327 326 326 325 325 325 326 326 325 325 324 324 324 322 321 320 319 316 316 315 314 313 315 316 317 317 317 318 317 316 316 314 315 315 313 311 312 312 311 310 310 310 312 313 312 311 312 313 313 309 304 304 304 303 303 302 300 299 299 299 299 300 300 300 299 298
328 327 327 326 327 327 327 326 327 327 327 326 326 327 328 328 328 326 327 327 326 327 327 326 327 327 326 326 326 325 325 325 325 324 322 321 319 318 319 318 315 313 313 314 314 314 315 315 313 312 313 313 312 313 313 312 312 312 311 309 308 309 310 312 312 311 312 311 310 309 306 304 303 301 299 299 299 299 299 299 299 300 300 298 297
329 327 327 326 327 326 327 327 327 327 327 328 328 327 327 326 327 326 327 327 327 327 327 326 325 323 323 325 325 326 324 318 308 310 310 311 320 318 318 317 315 314 313 312 312 312 313 313 312 313 312 311 312 312 312 311 309 308 310 311 309 310 309 309 310 312 310 309 309 308 306 308 306 307 307 308 308 302 303 300 302 301 297 297 296
325 326 326 327 327 328 326 326 328 328 328 328 311 302 304 323 327 325 327 327 326 327 326 325 325 324 324 325 325 319 313 312 310 304 301 301 304 315 321 319 315 313 314 312 310 311 312 311 311 311 310 309 310 311 310 311 311 311 310 310 307 307 308 308 309 311 312 310 307 305 305 306 307 306 306 306 308 308 309 308 308 303 300 297 297
324 324 325 326 325 326 325 326 326 327 327 317 295 296 297 299 320 326 324 323 324 324 324 325 324 324 327 325 326 321 317 311 313 300 299 299 298 298 298 302 307 314 312 311 311 311 310 310 311 310 308 307 308 310 310 310 311 310 308 308 307 307 306 304 303 307 312 309 306 304 303 306 306 304 305 305 306 308 308 308 297 298 298 297 297
326 326 325 325 325 326 327 326 326 326 321 296 293 294 295 295 300 320 324 323 323 322 322 321 320 321 321 322 323 324 324 323 322 322 308 298 297 296 295 296 296 296 293 310 312 312 311 309 309 309 309 307 308 310 311 311 309 308 309 308 307 306 305 304 304 303 308 309 305 302 301 305 306 304 304 304 306 307 307 303 297 297 296 297 297
324 324 324 324 324 325 325 323 321 319 318 291 291 292 293 294 296 305 323 324 322 321 322 321 320 320 319 319 320 320 321 313 317 321 321 319 297 294 295 294 293 294 292 290 295 313 312 310 310 309 307 307 306 307 308 306 306 306 307 306 306 306 305 304 303 304 306 307 303 301 300 303 304 303 303 305 306 306 307 300 297 297 296 296 297
323 323 325 324 322 321 320 319 318 318 317 294 290 290 292 292 293 299 323 323 323 322 322 323 323 321 320 319 318 319 319 321 320 320 320 320 315 310 308 310 308 302 293 293 293 295 303 311 310 308 309 308 306 307 306 305 304 303 302 302 304 303 303 303 305 304 305 306 303 302 299 301 304 302 301 303 305 306 306 303 297 297 296 296 296
321 320 319 318 318 318 317 317 316 316 314 290 292 291 291 292 292 297 322 323 321 322 323 323 322 322 321 321 321 319 319 320 315 313 319 318 317 315 313 312 310 309 311 310 310 309 308 309 309 309 308 308 307 307 306 305 304 302 302 302 302 303 303 304 304 305 305 306 306 303 297 300 303 300 301 303 304 304 306 301 298 297 297 296 296
318 317 317 316 316 315 315 315 314 313 310 290 292 292 292 294 292 319 320 320 319 319 320 321 320 321 321 321 319 319 318 315 300 293 301 316 316 314 311 311 310 307 301 294 292 293 302 307 308 308 307 302 295 301 300 301 301 302 303 304 304 303 302 301 300 302 301 304 305 301 299 299 302 300 300 303 303 302 304 305 299 298 297 297 297
314 314 315 315 315 314 314 315 315 314 314 296 291 291 292 292 298 315 314 315 315 317 318 319 318 317 316 316 318 317 314 311 297 294 296 298 315 312 311 310 309 308 304 301 293 290 290 290 289 289 289 289 291 290 290 290 296 299 299 298 299 302 299 297 297 298 299 302 303 303 300 297 301 300 300 301 301 300 301 302 304 299 297 298 296
312 314 314 313 315 315 315 315 315 315 315 300 291 292 293 292 297 317 314 313 313 314 315 316 316 312 305 298 307 315 312 309 291 294 294 305 314 312 312 310 309 308 307 306 304 299 289 290 289 289 290 290 289 288 290 291 289 293 298 296 299 298 297 297 295 297 299 300 300 303 300 297 299 300 298 300 300 301 301 303 303 302 297 297 295
314 313 313 313 314 315 315 316 306 314 315 304 291 292 291 292 304 317 312 313 312 313 313 313 313 311 306 299 294 298 303 297 289 290 290 301 313 311 310 310 308 308 306 305 303 301 301 301 300 299 297 293 297 299 299 290 291 293 298 298 299 298 296 296 296 296 295 298 302 303 297 297 298 299 298 296 295 299 302 301 301 302 303 302 302
Wind_Speed
3 4 3 3 3 3 3 3 3 3 3 3 2 2 2 2 3 3 3 3 3 3 3 3 3 3 3 4 4 6 5 4 4 4 3 3 4 10 10 9 6 4 2 2 5 6 6 6 7 6 4 4 4 9 8 6 6 6 6 6 6 6 6 6 6 7 6 6 6 6 6 6 6 6 6 7 6 6 6 6 7 10 9 9 7
4 4 5 3 3 3 4 3 3 3 3 3 2 3 3 2 3 3 3 3 4 3 2 3 3 2 3 3 4 5 4 4 4 5 3 2 3 8 10 9 6 5 2 2 5 5 5 7 6 7 5 4 4 9 8 7 7 6 6 6 6 6 6 6 5 5 5 5 5 5 5 4 5 6 5 4 5 6 7 6 6 7 7 6 7
2 2 2 4 3 3 3 3 3 2 2 2 1 1 2 2 3 2 2 1 1 2 3 2 2 4 2 4 3 2 3 4 4 4 4 4 4 6 9 10 7 6 5 2 1 1 4 8 7 8 7 6 5 5 8 7 7 6 7 6 6 6 5 5 5 5 5 4 5 5 5 4 4 5 5 5 4 5 5 6 6 6 6 6 5
1 1 3 2 3 4 3 3 4 3 2 1 2 3 3 3 3 2 1 2 2 2 2 2 2 2 3 2 2 3 3 3 4 4 3 4 4 4 5 6 7 7 5 3 3 1 3 4 7 7 7 7 6 6 7 7 7 6 7 7 7 6 5 5 5 5 4 4 4 4 4 4 4 4 5 5 4 4 4 5 5 5 5 5 5
3 3 2 3 2 3 4 4 2 2 2 2 3 3 3 3 4 2 3 3 3 3 3 3 3 3 3 2 2 4 3 2 2 1 3 3 3 4 6 4 7 7 7 6 5 2 1 0 3 4 9 8 7 7 5 4 8 7 7 8 7 7 6 5 4 4 4 4 4 4 4 4 4 4 4 4 4 4 4 4 4 4 5 5 5
4 3 2 2 3 3 3 3 2 2 2 1 4 4 3 3 4 2 2 3 4 3 3 4 4 3 3 2 2 2 2 3 1 1 2 2 2 3 5 8 5 6 7 9 6 5 2 2 3 2 1 4 5 5 6 4 4 3 8 8 7 7 7 6 5 4 5 4 4 4 4 4 4 4 3 3 4 3 4 3 3 4 4 4 5
3 2 2 2 1 2 3 1 2 3 2 3 3 2 4 4 4 2 5 3 3 3 3 3 2 3 2 2 2 3 3 3 2 4 3 2 1 2 2 2 7 7 5 7 9 6 6 3 4 3 4 3 4 3 3 5 5 4 3 8 8 7 7 6 5 5 5 5 4 4 4 4 3 4 3 3 3 3 3 2 2 3 4 4 3
3 3 3 3 1 1 1 1 1 2 3 2 2 8 3 2 1 4 1 5 5 4 4 3 3 2 2 2 2 2 2 3 3 4 3 2 4 2 2 3 2 3 2 2 5 8 8 5 3 3 2 3 3 2 3 3 5 4 4 9 8 9 7 6 6 5 4 4 4 4 4 4 4 4 4 3 3 3 3 3 2 2 2 4 3
4 3 3 3 1 1 1 0 1 1 2 0 5 3 2 1 1 4 3 3 7 4 3 3 2 3 2 3 3 2 3 1 2 3 2 2 4 3 3 4 3 2 2 3 7 5 8 5 5 3 2 1 2 3 3 4 4 4 6 4 8 8 8 7 8 6 5 4 4 4 4 4 4 4 4 4 4 4 3 3 4 3 2 2 3
3 4 3 3 2 2 2 2 2 1 1 1 2 1 2 1 2 2 3 3 4 2 2 1 2 3 3 3 2 2 2 2 1 1 4 4 6 4 3 2 2 5 3 2 4 4 3 4 3 1 2 1 4 6 4 3 4 4 4 5 7 10 9 9 10 9 7 6 4 5 4 4 5 5 5 5 5 5 5 4 4 4 3 4 4
3 3 2 4 2 1 2 2 2 2 2 3 3 2 1 1 3 2 2 3 2 2 2 1 2 2 3 4 4 4 2 1 2 4 2 2 1 3 4 4 5 5 5 5 3 4 4 5 6 3 5 6 5 7 6 4 3 2 4 6 6 7 8 6 10 11 9 6 6 6 7 6 6 6 5 5 5 6 5 5 5 5 5 5 5
4 4 3 3 6 5 3 3 2 3 3 4 2 1 2 2 3 5 3 2 2 1 1 2 2 2 3 1 2 1 2 2 2 2 2 1 2 1 3 2 3 4 3 1 1 6 7 6 4 2 3 8 8 5 5 5 2 2 2 4 4 5 7 6 4 9 9 7 7 7 8 7 6 6 6 5 6 5 5 6 5 5 6 5 5
5 5 4 4 3 3 3 3 2 1 1 1 1 2 2 2 3 4 5 3 2 1 2 3 4 3 2 3 3 3 3 3 4 4 3 1 2 3 0 2 3 1 5 4 2 2 3 4 6 4 4 4 5 5 3 2 2 1 3 4 4 4 5 5 6 6 10 10 9 9 9 9 8 8 7 7 7 7 7 7 7 6 6 7 6
5 4 4 4 4 3 3 3 2 2 2 2 3 3 3 3 3 4 3 3 2 2 1 3 3 4 3 3 4 3 2 3 4 4 2 3 3 4 1 1 0 2 5 5 9 6 4 4 4 5 4 4 5 4 4 4 2 5 4 3 5 6 6 6 5 6 7 9 10 11 10 11 10 10 9 9 9 9 8 8 8 9 8 8 8
5 5 4 4 4 3 4 3 2 1 2 2 2 2 2 3 4 4 3 2 2 2 2 3 4 2 2 3 3 4 5 3 4 4 2 3 2 4 3 3 3 3 2 1 2 3 4 5 4 4 4 3 1 3 3 4 7 8 6 5 3 4 6 7 5 1 4 5 7 8 9 11 11 11 11 11 10 10 10 9 9 10 9 8 8
5 5 4 4 4 4 3 3 3 2 2 2 2 2 2 1 2 2 3 2 3 3 1 1 4 3 5 4 2 3 3 1 3 3 3 1 3 2 3 2 2 3 2 0 3 2 1 3 4 3 2 1 1 2 4 3 6 4 5 4 5 5 6 6 6 5 7 7 1 2 3 9 11 12 12 11 10 10 11 11 10 9 9 9 9
5 4 5 4 4 4 4 3 3 2 2 3 3 3 2 2 2 1 2 2 2 3 2 3 3 4 3 4 4 5 2 2 3 4 2 4 2 4 2 4 3 2 5 3 3 1 1 3 3 3 3 1 1 1 1 1 2 3 4 5 2 1 2 5 5 6 8 8 6 6 7 6 8 12 12 10 10 11 12 12 11 10 10 10 9
4 4 5 4 4 4 3 3 3 2 2 2 3 2 3 3 3 1 0 2 2 3 4 4 2 2 1 2 0 2 1 3 2 2 1 5 2 7 5 2 2 5 7 3 4 5 4 4 4 3 3 2 2 3 5 3 1 1 2 5 2 4 3 3 2 4 7 7 7 8 9 10 10 8 9 10 10 12 11 12 12 11 11 10 10
4 4 5 5 5 4 4 3 3 3 2 2 3 3 3 4 3 3 2 2 1 2 3 2 4 2 2 1 1 2 3 4 2 4 2 2 5 2 3 5 7 6 5 7 4 4 4 3 3 3 4 3 2 2 2 3 5 5 7 4 3 0 2 3 4 6 7 8 8 8 9 11 9 9 9 8 10 10 12 13 13 12 12 11 12
4 4 4 5 5 4 4 4 3 3 2 4 3 3 2 3 4 3 3 3 3 3 2 1 1 2 2 2 2 1 2 2 2 6 3 4 3 3 4 6 6 7 5 5 5 4 4 3 3 4 2 1 2 2 3 3 3 4 5 5 4 3 3 4 4 5 6 8 7 6 6 8 10 10 9 10 9 9 12 14 14 13 12 12 13
5 5 5 5 5 5 5 5 5 4 3 4 4 4 4 4 3 4 4 4 3 3 2 3 2 1 3 2 2 1 1 1 2 2 2 2 3 3 5 5 6 6 5 4 5 5 5 5 5 5 4 3 3 4 4 3 3 5 8 7 6 4 5 6 7 7 7 7 6 4 4 4 7 11 12 12 12 12 13 12 12 13 13 13 12
5 5 5 6 5 5 5 6 5 5 5 5 5 5 4 5 5 5 4 4 3 5 5 4 3 3 3 1 2 3 4 2 1 2 3 5 5 6 4 4 5 6 5 5 5 6 6 6 6 6 5 5 6 6 7 7 7 6 8 11 10 11 12 10 9 8 6 6 5 6 8 5 5 5 7 9 12 13 11 10 13 17 16 14 14
5 4 5 5 6 6 6 6 5 5 5 5 5 5 5 4 4 4 5 4 4 4 4 4 3 3 2 2 2 3 4 3 2 0 1 2 3 4 5 5 6 7 5 5 5 7 7 7 7 7 7 6 6 7 7 8 9 8 13 14 13 13 13 11 10 10 10 10 10 9 11 11 10 9 8 6 5 4 11 12 14 16 14 13 13
5 5 4 5 5 5 6 6 6 5 5 5 4 4 4 3 4 3 4 4 4 4 4 4 3 3 4 3 3 3 3 3 3 2 2 1 2 4 5 6 7 7 7 6 7 7 8 7 7 7 7 7 7 7 7 9 9 10 11 13 12 11 11 10 10 9 12 13 13 14 13 11 10 11 11 12 11 8 5 5 5 7 6 5 8
5 5 5 4 5 5 5 6 6 6 5 5 5 5 4 4 5 5 5 5 5 5 5 5 5 4 3 3 3 3 3 3 4 3 2 1 3 4 5 4 6 6 6 6 6 7 7 7 7 7 7 7 7 8 8 8 8 6 9 12 14 12 11 11 10 10 12 12 12 12 12 12 12 12 13 13 12 12 11 10 8 7 7 7 8
6 5 4 4 5 6 6 6 6 6 6 6 5 5 4 5 6 5 5 5 5 4 5 5 4 4 4 4 5 4 4 4 3 2 2 1 3 3 3 5 4 5 5 6 5 6 7 7 7 7 7 7 7 7 7 7 8 8 11 10 13 13 13 12 12 11 11 11 10 10 10 10 11 11 12 12 11 10 9 8 8 7 6 6 6
6 5 5 5 5 5 6 6 6 6 6 5 5 5 5 5 6 5 5 5 5 5 5 5 5 6 6 5 4 4 5 5 4 4 3 2 1 2 3 4 4 3 4 5 6 7 6 6 6 7 7 6 6 6 7 8 8 4 4 9 9 14 12 13 12 12 12 10 10 9 10 11 11 11 11 11 10 10 10 9 9 8 8 8 8
6 6 5 5 5 6 5 6 5 6 6 6 5 5 5 4 5 4 5 3 4 5 4 5 5 5 5 4 4 5 5 5 5 4 4 3 1 3 3 2 3 4 3 4 4 5 4 6 6 7 6 6 6 6 6 5 6 2 7 7 7 9 12 11 12 12 10 8 9 9 10 11 11 11 11 11 11 11 11 10 9 9 9 8 7
7 6 6 5 5 5 6 6 5 5 5 5 6 5 5 5 5 5 4 4 4 5 4 5 4 4 5 5 4 4 4 4 5 5 4 2 1 0 2 1 1 2 3 4 4 4 4 4 4 6 6 5 4 5 5 5 6 6 7 7 7 7 8 10 11 11 10 10 9 9 9 9 10 10 10 11 11 11 10 10 10 10 10 11 9
7 6 6 6 6 6 6 6 5 5 4 4 5 5 5 5 5 4 4 3 4 4 4 5 4 4 4 4 4 5 5 4 5 4 4 3 2 1 2 2 2 2 1 2 4 3 4 3 4 5 4 5 4 4 4 5 7 6 6 6 6 7 8 10 10 10 10 10 10 9 9 9 9 10 9 10 10 10 10 9 10 10 9 9 8
8 8 7 7 6 6 6 6 5 5 5 5 4 4 4 5 4 4 3 2 3 4 4 3 3 3 4 4 4 4 3 4 3 3 3 2 2 1 0 2 0 3 1 3 4 3 2 4 4 4 4 4 4 4 4 4 3 3 3 4 5 9 10 8 9 9 9 8 9 9 9 9 8 8 9 9 9 9 9 9 9 9 8 8 7
8 9 8 7 7 7 6 6 6 6 5 4 4 4 3 3 3 4 3 2 3 3 3 2 2 3 3 3 3 3 2 2 3 3 3 3 3 3 2 1 2 1 0 1 3 6 2 3 4 4 4 3 2 3 4 4 4 5 4 3 4 11 6 8 9 8 7 7 7 8 8 8 8 8 7 8 7 7 7 7 7 7 6 7 7
7 8 8 8 8 7 8 7 7 6 6 5 4 3 3 3 3 3 2 2 2 3 3 3 2 2 2 3 3 3 2 2 2 2 2 3 2 2 3 3 3 2 1 3 5 6 4 2 2 3 2 2 3 2 3 2 2 3 1 3 1 1 1 2 7 8 6 5 6 6 6 6 6 6 6 7 7 7 7 7 7 6 6 5 6
8 7 8 7 7 7 7 7 6 6 6 6 5 3 3 4 3 2 1 2 1 2 1 1 3 1 1 0 3 2 1 2 1 2 3 1 1 3 3 2 4 3 1 3 4 4 5 4 3 3 4 2 2 2 2 1 1 2 1 2 2 1 2 4 2 6 7 4 3 3 4 4 5 5 6 6 6 6 6 7 7 7 7 6 6
8 8 8 8 8 8 7 7 7 6 6 5 5 4 4 3 2 2 1 1 1 1 2 1 1 3 1 1 1 2 0 1 0 2 1 2 2 2 2 2 3 3 3 2 3 4 5 4 4 4 3 2 1 2 3 2 1 1 1 1 1 1 1 1 4 4 7 5 1 2 3 3 4 5 6 6 7 6 6 7 6 7 7 8 7
8 8 9 9 9 8 8 8 8 7 6 5 5 4 4 4 2 2 2 2 2 2 1 2 1 2 2 2 2 2 2 2 2 1 2 1 2 2 2 3 3 3 3 2 0 1 2 4 3 3 4 3 3 2 1 2 1 1 1 1 2 1 1 2 3 1 7 5 5 5 4 5 5 5 5 7 8 8 7 7 7 7 7 7 7
8 8 8 8 8 8 7 8 7 8 7 7 6 5 5 3 2 2 3 3 2 3 3 2 2 3 2 3 3 2 2 3 2 3 1 1 3 2 2 3 3 3 2 2 1 1 2 3 3 2 3 3 2 1 1 2 2 2 2 1 2 2 1 2 3 1 8 10 10 9 8 8 8 7 5 7 8 8 8 8 7 7 7 7 7
7 7 7 7 7 7 6 6 6 5 4 4 5 4 4 4 4 3 3 3 4 4 3 3 3 3 3 4 4 4 5 4 4 2 1 3 4 4 4 4 3 4 3 2 2 1 2 2 3 3 3 3 3 2 1 0 3 3 3 3 2 3 2 3 4 2 3 2 3 5 9 10 12 10 8 8 8 8 9 8 8 8 8 7 6
8 8 7 7 7 7 7 6 6 6 5 4 4 3 3 3 4 3 3 3 4 4 4 4 3 3 3 4 4 5 6 5 4 4 5 4 3 5 5 4 4 2 3 4 4 3 3 2 3 3 2 2 2 2 3 0 2 2 2 4 6 4 3 4 6 4 3 3 7 10 8 7 8 9 6 11 11 11 10 9 9 9 8 6 4
7 7 7 7 6 6 5 5 4 4 4 4 4 3 3 3 3 2 2 2 3 3 3 2 1 1 1 3 4 5 5 6 4 5 6 5 6 6 2 3 5 5 5 4 4 5 4 4 4 3 4 3 3 1 1 3 2 3 1 4 6 6 6 6 6 6 4 3 6 4 9 11 11 15 17 16 14 11 11 11 13 12 8 2 4
2 4 5 5 5 5 4 4 4 3 3 3 2 2 3 3 2 2 2 3 2 3 4 3 2 2 4 4 4 4 5 9 11 7 5 5 3 5 5 7 7 6 6 5 5 5 6 6 5 5 5 6 5 3 4 4 2 3 4 4 5 6 6 7 7 6 3 5 6 6 7 7 8 7 7 7 4 13 13 15 10 9 5 3 5
3 3 4 3 4 5 5 4 4 3 2 2 6 7 7 3 1 1 2 3 3 3 3 2 4 4 4 4 4 5 5 4 2 10 7 4 6 5 5 4 5 4 1 7 8 6 6 7 5 5 6 6 4 2 3 2 1 2 3 3 6 6 7 7 7 5 1 4 6 8 8 7 7 8 8 7 4 6 5 6 2 5 3 5 6
5 5 7 4 3 3 4 4 4 3 3 4 6 5 4 4 3 1 1 1 1 1 2 2 2 4 4 3 3 7 8 7 7 9 6 7 8 7 4 5 5 4 6 8 8 7 5 3 5 3 2 3 3 3 4 2 2 2 3 4 5 6 7 8 9 8 1 0 6 8 9 8 7 8 7 8 7 6 6 3 9 3 4 8 8
3 4 3 2 1 2 2 4 4 4 5 5 4 4 4 2 4 3 0 0 1 0 0 1 2 2 2 0 1 1 1 1 3 6 8 9 8 6 6 5 5 4 5 3 5 4 5 5 3 4 3 4 5 4 6 4 4 4 4 5 6 6 7 8 8 9 5 5 7 9 10 7 6 8 9 8 7 7 7 3 2 4 7 8 9
3 3 3 4 4 4 5 6 7 7 6 4 3 6 5 3 1 5 0 1 1 0 1 1 2 1 1 1 1 1 4 5 5 4 2 5 6 3 4 7 7 4 4 6 6 4 2 2 3 4 4 2 3 2 5 4 4 6 6 6 6 7 7 9 9 9 8 8 9 9 10 8 8 8 8 7 8 8 7 9 12 8 9 9 9
5 4 4 5 6 6 6 7 7 7 6 5 4 4 3 2 3 6 1 1 2 2 1 1 2 2 2 2 2 2 0 3 1 2 2 0 4 5 6 6 5 7 7 8 8 6 1 4 2 2 3 2 1 2 2 2 4 5 6 7 8 9 9 10 11 11 11 7 8 8 9 8 7 8 9 9 7 7 8 5 8 11 11 9 10
7 7 7 7 6 6 6 6 6 6 4 4 2 4 4 4 6 7 2 1 1 2 1 1 1 1 2 2 2 3 1 4 5 6 3 2 1 3 4 5 6 6 5 5 4 2 2 1 1 1 1 1 1 1 1 1 3 4 5 7 9 10 10 11 11 11 10 8 8 6 9 8 8 9 9 9 8 8 8 9 8 10 9 10 10
6 6 6 7 7 6 6 6 6 7 4 2 2 3 3 6 8 5 3 2 2 2 2 2 1 1 2 2 1 2 4 5 5 5 6 3 3 3 5 6 6 6 7 6 7 9 8 5 4 4 4 5 5 4 3 3 4 5 6 7 8 9 9 9 9 8 9 7 6 7 9 9 7 9 10 8 9 10 8 8 9 8 11 10 8
7 6 6 6 6 6 5 5 6 7 6 4 4 5 6 7 8 0 1 2 3 3 3 2 3 5 5 6 3 3 5 5 4 3 2 7 3 4 5 5 5 5 6 5 7 8 8 8 7 6 6 4 3 2 2 2 3 5 6 8 9 7 8 10 10 9 8 7 6 7 9 10 7 8 10 9 9 10 10 10 9 4 9 8 11
6 6 6 6 5 5 5 5 4 6 6 5 5 5 4 4 7 3 1 2 2 3 3 3 4 5 9 13 11 4 6 6 5 4 5 6 2 2 3 4 4 3 4 4 3 4 5 4 3 2 3 3 2 2 4 4 3 4 6 8 8 8 9 9 10 9 9 8 9 6 6 9 9 8 9 9 10 10 9 7 6 6 9 14 16
5 6 5 5 5 5 4 4 2 2 7 5 4 4 1 3 5 3 0 1 2 2 3 4 4 6 6 9 13 11 9 7 8 9 9 7 2 2 2 3 4 3 2 2 2 1 1 2 4 5 5 6 7 7 8 11 8 9 8 8 8 8 9 9 9 10 10 7 2 4 7 9 9 8 8 10 10 8 7 7 7 7 7 9 7
Wind_Direction
186 150 199 205 188 186 189 195 198 190 175 197 197 176 204 206 193 211 197 194 186 182 185 182 185 199 218 223 222 212 199 210 217 197 193 161 159 143 158 164 165 200 253 236 192 180 176 163 159 162 161 148 159 156 148 148 149 150 146 138 132 125 127 123 118 117 115 104 108 105 99 95 95 96 94 85 69 68 72 75 70 55 49 49 51
242 178 192 187 196 203 209 192 211 193 196 190 193 206 194 196 211 223 191 200 187 163 208 183 206 172 224 229 199 230 185 209 208 215 194 157 150 139 158 164 166 183 192 295 212 184 190 163 172 163 163 158 173 163 155 156 162 163 150 144 138 138 131 128 127 119 115 120 108 104 97 90 93 95 99 99 86 73 67 66 69 67 61 64 56
290 201 223 173 200 206 224 203 203 211 222 188 224 280 227 211 229 235 237 232 158 130 224 189 225 181 186 232 213 220 204 205 215 220 207 179 173 149 159 166 170 174 174 168 21 225 208 182 182 173 167 173 171 174 163 169 171 169 159 154 150 144 142 141 139 136 125 126 127 120 125 117 100 101 105 109 105 89 85 77 78 80 72 70 69
21 114 241 174 199 203 207 209 209 197 183 223 201 221 224 217 207 217 261 223 214 205 217 253 245 248 178 220 219 225 211 207 226 189 207 191 176 170 145 168 171 173 171 173 167 155 340 213 181 176 175 171 173 182 176 183 182 180 172 158 158 155 155 153 152 139 143 140 135 134 132 124 128 120 103 103 107 105 98 95 87 76 83 81 81
188 205 174 201 205 211 204 205 194 207 160 179 218 218 236 242 198 239 202 205 224 201 223 216 238 252 271 175 216 232 259 223 223 191 218 220 207 153 157 162 174 177 177 179 169 142 168 225 176 207 171 175 172 178 190 192 166 181 182 167 164 161 159 163 159 157 155 156 146 153 147 137 135 122 115 101 101 102 112 109 87 77 77 88 79
168 180 191 199 195 216 204 204 179 180 149 201 219 222 250 272 314 217 203 214 197 212 218 221 220 217 227 274 247 301 269 246 140 223 235 221 217 226 173 162 177 179 187 185 182 166 154 170 174 182 178 175 171 191 171 194 164 154 181 171 164 165 170 169 169 169 171 170 167 168 156 143 140 137 131 124 111 120 95 94 121 99 98 84 78
157 169 173 213 165 204 208 195 165 164 197 235 297 345 248 232 229 25 282 239 221 189 221 230 223 222 184 232 243 196 223 260 188 244 213 223 283 255 251 212 147 202 193 203 179 174 169 179 177 167 158 152 175 190 204 186 165 179 187 165 172 179 176 176 177 180 182 186 182 175 175 159 164 142 143 139 142 107 121 106 101 124 100 104 84
144 175 121 69 56 14 11 238 202 218 153 227 220 232 168 243 259 204 206 299 265 200 199 211 212 230 209 232 215 244 230 206 223 238 244 260 239 205 239 228 206 215 205 124 169 170 170 172 172 128 160 156 175 202 205 207 174 184 191 169 175 184 185 181 185 187 192 198 194 196 185 177 168 160 162 158 155 151 143 151 132 121 121 101 132
141 136 135 141 133 104 272 53 263 5 33 202 262 284 323 201 19 297 232 212 251 227 196 205 206 209 207 217 216 218 240 243 189 217 197 227 279 250 229 238 205 101 210 197 190 184 158 161 157 129 81 167 175 203 215 213 194 198 188 171 171 185 191 188 190 196 189 198 207 209 201 185 176 179 183 172 172 177 174 167 165 153 152 163 125
142 141 147 148 136 179 146 155 104 134 194 228 249 273 267 291 222 235 252 249 266 276 244 209 209 203 198 203 216 205 186 185 185 2 255 195 214 246 256 250 235 196 189 78 8 77 124 139 67 161 116 218 187 205 213 206 219 198 189 188 177 184 199 195 193 194 198 199 207 205 211 199 192 197 194 187 183 189 185 189 178 182 177 189 182
131 148 155 132 104 56 135 119 147 170 209 223 225 214 230 255 260 233 253 264 296 304 320 310 266 253 197 193 198 183 202 170 215 192 205 251 304 246 239 227 225 213 204 145 201 111 86 151 189 209 178 225 216 209 215 217 227 256 226 197 200 204 210 210 195 193 195 214 209 203 204 201 197 202 213 201 195 193 200 201 194 194 184 204 191
124 119 128 131 151 184 144 177 175 218 202 235 232 196 226 218 231 249 234 216 242 254 273 268 239 229 224 208 245 199 207 214 229 210 191 162 191 201 250 244 239 230 159 29 182 153 152 151 138 149 206 213 221 222 218 210 194 207 212 252 254 223 218 221 223 185 199 219 218 208 201 204 203 207 214 218 209 207 208 208 214 202 200 206 207
121 129 124 123 114 124 148 160 186 189 191 97 132 139 154 189 228 249 249 222 201 267 232 255 240 211 207 225 210 216 217 232 218 224 182 185 60 321 251 250 253 116 17 119 254 107 145 170 135 177 196 177 214 219 248 201 122 153 236 234 231 286 284 264 221 201 198 211 210 211 201 201 200 206 215 221 220 217 214 210 213 212 209 206 211
110 103 104 108 116 116 106 97 99 85 87 118 137 147 168 177 214 225 235 231 219 237 230 253 223 249 228 205 225 198 226 227 238 226 213 190 193 205 258 278 177 68 155 154 156 184 170 157 156 150 196 201 181 171 190 202 202 219 177 203 214 219 239 257 291 247 217 210 215 208 197 199 203 203 208 217 222 228 224 213 209 210 211 209 208
113 105 101 94 98 102 96 93 83 95 118 126 126 152 162 169 197 230 217 202 211 186 240 247 266 215 274 285 233 237 176 238 228 252 243 255 211 224 193 166 182 116 95 141 86 121 133 125 135 174 174 188 230 154 185 194 156 185 161 174 188 203 206 224 222 210 316 266 222 222 195 202 206 208 210 212 217 223 228 224 214 209 211 212 211
115 119 103 93 84 89 94 77 67 51 58 85 108 104 114 160 167 202 237 219 179 154 186 212 268 237 224 245 243 219 244 275 302 252 209 204 251 307 289 301 101 157 88 29 97 100 109 112 127 126 146 155 243 250 194 189 124 166 172 174 201 207 219 208 210 198 219 240 280 274 235 210 213 214 215 217 220 225 227 228 223 216 218 214 218
105 88 92 87 75 67 66 80 72 60 60 74 71 58 64 104 124 239 240 271 180 146 166 188 223 274 296 248 231 225 65 231 201 272 251 194 166 213 127 282 301 61 209 100 89 73 64 91 58 52 33 66 156 195 247 192 189 230 178 167 128 70 259 227 223 216 228 236 237 243 251 259 241 222 223 224 219 223 229 232 228 220 218 217 216
97 85 75 81 71 67 63 86 97 82 70 81 79 78 43 29 41 21 248 231 277 186 163 177 191 196 323 16 218 328 237 158 200 179 301 55 319 16 32 26 282 9 358 83 84 66 69 71 68 68 79 69 65 58 12 359 348 335 333 64 68 72 47 2 307 262 252 256 254 254 262 256 250 254 242 230 219 222 225 232 235 232 227 224 224
78 79 76 66 66 57 56 56 79 85 75 57 62 48 50 27 1 22 16 27 315 258 214 171 180 174 135 350 358 329 326 295 285 125 135 150 49 54 25 18 40 49 25 21 32 69 61 67 80 71 67 50 37 73 134 70 77 117 67 34 8 318 233 257 284 302 306 301 294 284 272 260 252 249 252 245 235 225 225 230 232 235 235 231 232
92 79 82 75 65 66 58 54 45 59 68 71 54 47 45 62 36 18 18 28 7 2 3 290 291 147 154 187 182 258 274 279 244 293 98 171 120 75 72 59 62 58 41 47 55 69 65 49 83 91 89 151 102 122 109 108 81 82 78 37 353 355 326 327 348 352 352 334 332 320 298 292 275 262 253 241 231 230 234 237 237 236 237 239 241
80 87 69 68 65 66 61 61 48 47 56 73 53 44 47 52 53 48 39 39 32 24 33 47 47 95 162 192 235 256 238 231 280 264 191 130 202 151 109 103 80 64 59 53 52 57 64 66 65 87 91 64 82 84 86 81 49 44 39 27 29 13 8 10 19 23 11 352 356 359 343 314 283 265 255 243 234 233 232 235 247 245 239 239 242
99 80 73 67 60 66 73 67 63 49 48 63 81 76 57 62 54 46 35 33 33 27 25 40 57 53 13 78 179 180 188 171 210 210 199 144 197 163 152 138 102 90 86 82 83 73 74 69 70 69 79 96 80 60 63 50 38 35 35 32 42 55 59 60 60 51 38 29 36 22 26 27 1 338 297 277 257 245 240 235 236 245 243 238 233
107 93 70 69 70 67 68 73 70 55 49 63 60 67 77 75 71 58 41 31 47 56 52 34 45 60 47 53 27 11 15 359 35 148 300 140 127 129 133 113 114 108 91 87 86 80 77 69 61 59 70 71 71 80 83 77 73 63 50 42 37 44 59 63 59 57 57 47 40 42 44 48 36 39 28 20 356 317 265 248 241 247 257 275 291
114 102 83 74 79 80 78 73 65 59 63 57 49 71 75 73 56 47 67 67 66 71 69 72 49 71 46 34 33 23 14 13 24 14 305 130 146 122 125 124 116 104 112 105 93 87 71 70 75 77 72 77 84 83 88 87 76 66 64 46 43 39 45 55 63 59 53 51 39 33 34 46 45 43 45 43 42 40 29 36 29 23 5 322 288
118 106 93 94 91 82 74 70 72 65 59 62 69 54 57 64 62 71 58 49 49 38 53 39 33 29 50 33 20 38 43 36 6 12 49 71 109 146 117 122 110 120 126 125 98 78 76 73 67 63 74 74 73 72 71 69 65 43 78 59 40 43 39 46 49 53 56 52 49 42 33 35 40 42 44 46 43 38 40 40 32 30 24 14 359
124 113 111 101 86 84 82 77 75 76 72 68 62 58 43 75 77 67 66 59 55 60 60 52 47 34 19 35 27 37 31 22 17 6 56 103 137 135 133 113 133 127 132 123 115 102 81 69 65 67 63 62 71 79 74 78 80 64 66 69 51 44 49 52 55 58 59 56 49 48 42 40 43 45 45 47 47 45 42 41 39 32 35 30 10
128 123 124 110 110 103 97 92 84 78 73 71 71 68 57 66 75 66 59 53 54 51 54 46 51 48 39 36 49 45 19 26 22 4 21 58 102 131 133 134 126 114 111 99 92 77 92 68 64 74 69 70 67 67 81 82 68 32 102 77 69 45 45 52 52 54 57 56 55 52 48 45 45 46 46 43 42 37 33 33 31 29 28 28 21
128 136 138 133 122 120 115 104 97 88 84 79 73 72 67 69 74 70 69 69 75 62 74 77 62 51 50 34 44 44 30 25 26 30 14 9 59 132 169 161 141 136 132 118 103 84 61 97 83 61 79 78 72 80 102 95 78 111 79 78 73 63 46 53 56 56 50 50 53 51 47 43 41 40 39 38 36 37 38 35 32 28 27 25 21
135 142 144 139 136 129 121 118 113 103 97 92 90 90 85 78 75 73 68 63 62 66 63 73 70 58 63 48 53 58 53 39 29 31 36 357 8 335 301 295 281 152 163 134 106 108 79 31 87 83 76 80 81 77 67 63 22 343 86 84 77 74 55 59 59 59 53 50 51 52 48 44 41 36 32 35 32 30 29 33 30 29 29 28 19
142 147 146 142 139 140 133 129 120 116 109 102 94 98 98 90 90 85 78 82 77 71 69 70 67 70 63 59 58 70 51 44 52 34 42 30 357 327 271 326 315 298 180 164 106 78 101 64 53 88 81 97 110 93 96 94 11 336 79 96 91 86 84 67 61 59 57 51 49 47 48 44 38 30 27 28 26 23 19 18 21 20 15 15 7
147 150 154 152 151 142 134 129 129 128 128 117 121 106 100 104 110 104 110 93 82 80 70 59 61 70 74 78 81 78 67 63 59 61 50 33 57 147 274 275 58 318 41 120 147 90 26 98 73 50 69 70 80 90 87 78 54 317 104 110 112 130 121 84 73 65 57 55 49 45 44 43 36 27 24 22 18 18 16 13 15 12 7 6 357
152 156 160 159 155 153 146 136 138 136 136 137 128 122 117 107 122 109 103 127 105 105 102 91 91 93 97 83 62 65 61 96 77 60 63 53 20 41 86 138 134 344 311 210 105 122 89 100 108 117 109 84 69 114 114 122 113 277 108 110 121 171 194 115 95 78 63 53 48 42 41 37 32 29 19 13 9 6 7 8 11 8 4 1 358
157 160 159 162 163 160 153 151 144 143 139 143 143 142 130 120 105 96 125 114 136 101 98 118 113 97 72 87 94 75 38 33 73 89 61 69 63 48 68 105 121 149 165 102 128 127 124 127 154 103 80 253 102 31 87 92 141 133 130 77 74 353 356 142 121 103 81 58 45 39 39 32 27 23 15 8 3 356 355 354 355 358 359 360 353
165 160 160 160 167 168 157 152 150 147 153 143 151 145 133 130 123 131 138 148 77 98 87 101 102 74 87 83 91 83 33 34 354 198 127 191 154 136 109 111 112 119 124 140 135 146 135 161 152 142 140 237 135 103 82 70 78 330 130 144 142 329 26 324 154 113 112 75 35 35 17 16 15 4 357 354 347 343 338 336 336 338 343 347 344
169 167 164 170 174 172 166 161 156 155 155 149 149 150 133 141 138 139 160 130 148 136 177 179 196 117 152 177 172 133 158 167 253 4 30 266 293 76 82 85 101 113 121 123 157 141 161 144 163 169 131 111 319 119 134 125 16 294 208 53 333 49 5 348 320 114 129 134 196 315 317 313 332 340 337 326 326 325 320 316 319 321 328 330 333
168 171 172 178 176 177 174 171 166 166 164 163 165 169 164 154 178 177 184 192 189 211 242 244 225 196 216 211 206 191 200 217 226 222 235 207 255 121 158 124 140 134 116 134 237 213 171 161 179 195 140 164 170 165 150 164 169 234 332 175 208 229 338 321 311 353 137 168 211 246 260 277 275 304 316 306 307 313 308 305 303 310 311 314 320
175 174 181 182 182 186 186 184 178 178 179 180 178 177 173 184 201 220 231 231 225 230 227 231 228 251 241 263 261 230 202 242 211 251 254 281 261 186 229 161 166 150 169 224 189 211 198 168 150 142 158 169 129 84 351 314 176 207 196 229 300 299 250 296 277 245 149 183 206 219 232 241 246 240 270 282 283 290 297 296 298 297 296 299 310
169 179 183 182 193 195 193 184 176 183 185 177 182 187 193 185 189 198 215 216 228 240 217 226 232 230 228 237 238 238 235 236 239 232 274 270 288 277 249 252 193 171 218 201 237 225 263 189 183 168 201 177 174 159 113 316 342 329 341 333 243 216 274 295 299 277 303 236 252 205 212 232 210 221 243 243 253 266 270 276 284 285 280 283 292
173 180 188 191 197 209 211 199 188 182 182 187 200 205 221 206 190 193 203 223 226 228 234 236 247 252 252 239 242 239 240 243 234 228 227 218 265 261 255 249 278 228 221 233 234 226 236 227 210 232 210 202 250 216 172 20 269 301 320 338 328 330 314 307 306 304 234 245 229 218 249 277 290 282 239 214 224 244 257 265 264 262 265 256 278
186 194 194 196 188 205 200 204 194 182 184 198 203 209 219 204 195 198 204 227 244 227 224 239 235 247 268 264 252 254 249 245 249 236 242 216 212 231 298 299 276 245 243 242 245 253 232 224 256 253 255 245 214 239 304 243 239 251 26 338 318 318 315 316 298 286 281 283 306 297 215 220 229 227 234 238 227 225 235 245 244 243 232 192 307
207 206 197 193 187 198 195 200 193 189 199 197 194 220 220 212 203 189 208 222 225 234 231 193 133 198 220 237 262 262 29 39 31 359 351 333 246 238 208 220 229 245 254 278 264 247 257 264 256 256 261 260 264 267 268 289 311 331 336 313 304 308 312 307 308 296 270 296 307 301 305 316 302 304 307 302 198 195 227 225 243 211 136 328 330
115 334 278 206 197 192 196 190 180 180 185 97 41 26 3 344 178 191 191 213 219 220 233 193 169 230 229 226 220 80 66 84 228 249 256 277 302 293 278 201 202 221 231 257 255 263 264 263 261 262 252 276 303 285 304 283 315 296 282 292 299 308 300 296 299 310 250 292 308 303 309 310 301 296 293 284 277 206 286 247 32 52 9 337 302
153 190 235 222 209 205 207 189 172 170 104 63 38 49 55 355 312 191 179 143 143 176 178 196 179 197 218 217 222 162 170 175 228 246 246 229 222 239 283 310 303 216 222 242 245 259 267 271 292 307 301 309 293 282 277 290 223 278 308 307 300 301 304 312 311 315 20 120 298 305 301 305 294 288 289 288 284 281 279 272 81 6 342 293 285
169 205 197 197 148 167 162 145 138 110 86 51 30 67 68 49 325 313 301 218 164 189 189 210 172 190 217 199 154 154 184 137 265 213 209 218 221 219 224 246 279 352 33 324 290 242 233 253 250 260 280 267 274 255 273 289 323 319 304 297 294 295 299 300 302 303 321 330 311 301 296 292 283 284 282 275 275 276 272 321 322 221 246 257 268
131 177 158 156 162 159 148 135 121 110 102 82 57 53 51 54 332 277 100 28 280 358 344 325 334 333 329 316 293 239 117 156 220 235 254 165 151 136 133 112 88 77 75 53 45 14 358 246 252 245 235 259 266 333 43 19 332 296 304 299 308 304 297 292 293 301 303 319 300 288 291 300 293 279 275 277 284 281 266 212 217 225 227 245 269
149 141 157 151 145 132 121 119 111 103 97 84 84 109 115 139 201 261 72 73 50 45 39 345 314 318 297 292 296 273 76 201 335 326 311 283 152 158 166 187 158 125 117 108 99 81 335 278 277 271 69 3 304 65 56 11 309 311 317 306 309 302 297 294 301 293 288 284 273 288 286 287 297 300 289 289 284 281 270 284 162 202 220 250 267
143 154 149 133 117 118 121 118 111 99 80 34 78 125 147 174 195 245 90 121 113 119 112 128 289 322 298 286 277 308 7 49 47 357 308 255 174 160 160 156 149 144 103 76 53 58 123 69 29 48 85 82 36 49 8 338 310 298 301 299 296 291 288 286 276 261 265 256 251 254 275 293 302 292 289 291 293 286 285 279 236 219 226 232 251
137 133 130 129 130 128 127 126 124 114 97 78 116 140 163 197 215 229 135 139 114 97 95 69 41 40 20 346 323 68 68 69 57 22 354 334 154 158 151 143 132 102 77 61 46 37 31 30 32 32 45 50 40 31 20 345 302 286 278 268 262 261 265 272 278 287 281 281 261 262 277 285 296 293 291 290 289 286 288 287 286 217 205 215 233
146 145 140 141 138 136 139 136 127 125 123 132 162 182 201 229 251 275 111 130 97 100 74 86 82 57 36 9 26 89 87 78 43 11 30 310 153 157 153 156 147 134 122 111 78 60 53 59 62 66 67 65 74 73 35 343 330 329 293 281 272 275 286 288 288 286 284 288 281 270 280 285 290 293 294 290 291 293 291 287 282 236 163 200 213
163 153 153 149 151 147 145 145 142 138 132 116 147 151 212 262 291 297 148 101 102 104 112 93 88 79 52 27 6 75 86 82 32 13 348 294 210 190 184 187 184 161 128 131 138 113 108 99 94 120 161 157 186 222 222 217 219 249 247 272 296 298 282 280 284 291 292 291 282 284 277 278 293 288 288 291 289 277 274 279 295 292 200 203 216
166 169 170 160 156 154 148 135 27 205 133 120 113 121 232 273 288 284 318 123 127 124 134 127 116 104 83 56 39 43 62 62 47 39 14 329 222 241 235 239 235 221 104 114 114 134 171 210 200 200 209 197 216 228 212 192 202 218 242 264 280 277 283 288 291 293 287 278 328 102 275 288 292 292 301 299 289 286 289 288 286 281 296 302 280